Location: Unspecified
(48.2082°N, 0.0000°E)
Time: 18:07:01
(UTC+00:00)

Transit 4A - Pass Details

Date: 24 June 2019
Orbit: 863 x 981 km, 66.8° (Epoch: 20 August)

Event Time Altitude Azimuth Distance (km) Brightness Sun altitude
Rises 05:49:20 0° 147° (SSE) 3,611 11.2 15.2°
Reaches altitude 10° 05:54:01 10° 115° (ESE) 2,699 11.2 15.9°
Maximum altitude 05:55:48 11° 99° (E) 2,617 11.7 16.2°
Drops below altitude 10° 05:57:35 10° 82° (E) 2,720 12.7 16.5°
Sets 06:02:21 0° 51° (NE) 3,688 12.3 17.2°
